| time (UTC) | temp C | wind direction | speed KPH | gust KPH | rain 1hr cm | rain 24hr cm | rain mn cm | humidity % | barometer mb |
| 20260510021926 | 23 | 125 | 0.0 | 3.2 | 0.00 | 0.00 | 0.00 | 50 | 1009.8 |
| 20260510021424 | 23 | 136 | 4.8 | 6.4 | 0.00 | 0.00 | 0.00 | 49 | 1009.4 |
| 20260510020921 | 23 | 117 | 0.0 | 4.8 | 0.00 | 0.00 | 0.00 | 49 | 1009.3 |
| 20260510020421 | 23 | 107 | 1.6 | 3.2 | 0.00 | 0.00 | 0.00 | 49 | 1009.3 |
| 20260510015917 | 23 | 115 | 3.2 | 6.4 | 0.00 | 0.00 | 0.00 | 48 | 1009.0 |
| 20260510015413 | 23 | 132 | 4.8 | 6.4 | 0.00 | 0.00 | 0.00 | 48 | 1008.5 |
| 20260510014908 | 23 | 141 | 3.2 | 6.4 | 0.00 | 0.00 | 0.00 | 48 | 1008.3 |
| 20260510014406 | 23 | 143 | 3.2 | 4.8 | 0.00 | 0.00 | 0.00 | 48 | 1008.1 |
| 20260510013902 | 23 | 142 | 3.2 | 9.7 | 0.00 | 0.00 | 0.00 | 48 | 1007.9 |
| 20260510013357 | 23 | 73 | 3.2 | 4.8 | 0.00 | 0.00 | 0.00 | 47 | 1007.8 |
| 20260510012852 | 23 | 146 | 3.2 | 4.8 | 0.00 | 0.00 | 0.00 | 47 | 1007.7 |
| 20260510012347 | 23 | 123 | 3.2 | 4.8 | 0.00 | 0.00 | 0.00 | 47 | 1008.2 |
| 20260510011842 | 24 | 152 | 0.0 | 3.2 | 0.00 | 0.00 | 0.00 | 46 | 1008.0 |
| 20260510011338 | 24 | 161 | 0.0 | 1.6 | 0.00 | 0.00 | 0.00 | 45 | 1008.0 |
| 20260510010834 | 24 | 126 | 0.0 | 1.6 | 0.00 | 0.00 | 0.00 | 45 | 1008.0 |
| 20260510010332 | 25 | 142 | 1.6 | 4.8 | 0.00 | 0.00 | 0.00 | 44 | 1007.9 |
| 20260510005828 | 25 | 98 | 0.0 | 6.4 | 0.00 | 0.00 | 0.00 | 45 | 1008.0 |
| 20260510005325 | 25 | 160 | 0.0 | 4.8 | 0.00 | 0.00 | 0.00 | 44 | 1007.8 |
| 20260510004822 | 25 | 154 | 1.6 | 6.4 | 0.00 | 0.00 | 0.00 | 42 | 1008.1 |
| 20260510004320 | 25 | 133 | 0.0 | 4.8 | 0.00 | 0.00 | 0.00 | 43 | 1008.1 |
| 20260510003817 | 25 | 146 | 0.0 | 4.8 | 0.00 | 0.00 | 0.00 | 44 | 1008.0 |
| 20260510003314 | 25 | 91 | 0.0 | 4.8 | 0.00 | 0.00 | 0.00 | 42 | 1007.9 |
| 20260510002813 | 26 | 151 | 1.6 | 4.8 | 0.00 | 0.00 | 0.00 | 42 | 1007.8 |
| 20260510002310 | 26 | 162 | 3.2 | 6.4 | 0.00 | 0.00 | 0.00 | 40 | 1008.3 |
| 20260510001807 | 26 | 164 | 6.4 | 9.7 | 0.00 | 0.00 | 0.00 | 41 | 1008.2 |
| 20260510001305 | 26 | 134 | 1.6 | 3.2 | 0.00 | 0.00 | 0.00 | 40 | 1008.2 |
| 20260510000800 | 27 | 126 | 0.0 | 4.8 | 0.00 | 0.00 | 0.00 | 38 | 1008.2 |
| 20260510000258 | 27 | 172 | 4.8 | 4.8 | 0.00 | 0.00 | 0.00 | 37 | 1008.2 |
| 20260509235755 | 27 | 159 | 0.0 | 4.8 | 0.00 | 0.00 | 0.00 | 36 | 1008.1 |
| 20260509235252 | 28 | 168 | 3.2 | 9.7 | 0.00 | 0.00 | 0.00 | 35 | 1008.1 |
| 20260509234747 | 28 | 146 | 1.6 | 9.7 | 0.00 | 0.00 | 0.00 | 36 | 1008.2 |
| 20260509234244 | 28 | 146 | 8.0 | 9.7 | 0.00 | 0.00 | 0.00 | 35 | 1008.2 |
| 20260509233743 | 28 | 135 | 4.8 | 9.7 | 0.00 | 0.00 | 0.00 | 35 | 1008.3 |
| 20260509233240 | 28 | 189 | 3.2 | 6.4 | 0.00 | 0.00 | 0.00 | 35 | 1008.2 |
| 20260509232736 | 28 | 145 | 6.4 | 11.3 | 0.00 | 0.00 | 0.00 | 34 | 1008.0 |
| 20260509232233 | 28 | 198 | 3.2 | 4.8 | 0.00 | 0.00 | 0.00 | 34 | 1008.2 |
| 20260509231729 | 28 | 147 | 6.4 | 12.9 | 0.00 | 0.00 | 0.00 | 34 | 1008.2 |
| 20260509231227 | 28 | 156 | 6.4 | 12.9 | 0.00 | 0.00 | 0.00 | 34 | 1008.2 |
| 20260509230724 | 28 | 109 | 4.8 | 12.9 | 0.00 | 0.00 | 0.00 | 34 | 1008.3 |
| 20260509230221 | 28 | 93 | 4.8 | 9.7 | 0.00 | 0.00 | 0.00 | 34 | 1008.2 |
| 20260509225716 | 28 | 113 | 4.8 | 9.7 | 0.00 | 0.00 | 0.00 | 33 | 1008.5 |
| 20260509225212 | 28 | 154 | 6.4 | 9.7 | 0.00 | 0.00 | 0.00 | 34 | 1008.4 |
| 20260509224708 | 28 | 113 | 6.4 | 9.7 | 0.00 | 0.00 | 0.00 | 34 | 1008.6 |
| 20260509224205 | 29 | 164 | 8.0 | 11.3 | 0.00 | 0.00 | 0.00 | 32 | 1008.6 |
| 20260509223702 | 29 | 191 | 0.0 | 11.3 | 0.00 | 0.00 | 0.00 | 33 | 1009.0 |
| 20260509223159 | 29 | 154 | 3.2 | 9.7 | 0.00 | 0.00 | 0.00 | 34 | 1008.8 |
| 20260509222656 | 29 | 158 | 6.4 | 11.3 | 0.00 | 0.00 | 0.00 | 32 | 1008.8 |
| 20260509222151 | 29 | 144 | 4.8 | 9.7 | 0.00 | 0.00 | 0.00 | 34 | 1008.8 |
| 20260509221648 | 29 | 162 | 3.2 | 11.3 | 0.00 | 0.00 | 0.00 | 33 | 1008.8 |
| 20260509221143 | 29 | 121 | 6.4 | 11.3 | 0.00 | 0.00 | 0.00 | 33 | 1009.0 |
| 20260509220640 | 30 | 168 | 6.4 | 11.3 | 0.00 | 0.00 | 0.00 | 31 | 1009.0 |
| 20260509220136 | 29 | 169 | 0.0 | 4.8 | 0.00 | 0.00 | 0.00 | 34 | 1009.1 |
| 20260509215632 | 29 | 163 | 3.2 | 14.5 | 0.00 | 0.00 | 0.00 | 33 | 1008.8 |
| 20260509215129 | 29 | 51 | 4.8 | 11.3 | 0.00 | 0.00 | 0.00 | 31 | 1009.0 |
| 20260509214626 | 29 | 139 | 1.6 | 6.4 | 0.00 | 0.00 | 0.00 | 32 | 1009.0 |
| 20260509214122 | 30 | 152 | 0.0 | 3.2 | 0.00 | 0.00 | 0.00 | 34 | 1009.0 |
| 20260509213619 | 29 | 155 | 3.2 | 9.7 | 0.00 | 0.00 | 0.00 | 32 | 1009.0 |
| 20260509213115 | 29 | 49 | 1.6 | 4.8 | 0.00 | 0.00 | 0.00 | 32 | 1009.2 |
| 20260509212613 | 29 | 43 | 0.0 | 4.8 | 0.00 | 0.00 | 0.00 | 33 | 1009.0 |
| 20260509212110 | 29 | 129 | 1.6 | 14.5 | 0.00 | 0.00 | 0.00 | 34 | 1009.3 |
| 20260509211606 | 29 | 184 | 1.6 | 6.4 | 0.00 | 0.00 | 0.00 | 34 | 1009.3 |
| 20260509211103 | 29 | 201 | 0.0 | 4.8 | 0.00 | 0.00 | 0.00 | 33 | 1009.5 |
| 20260509210559 | 29 | 80 | 3.2 | 4.8 | 0.00 | 0.00 | 0.00 | 35 | 1009.4 |
| 20260509210056 | 29 | 143 | 1.6 | 4.8 | 0.00 | 0.00 | 0.00 | 36 | 1009.4 |
| 20260509205555 | 29 | 125 | 3.2 | 9.7 | 0.00 | 0.00 | 0.00 | 38 | 1009.5 |
| 20260509205051 | 29 | 164 | 1.6 | 6.4 | 0.00 | 0.00 | 0.00 | 35 | 1009.6 |
| 20260509204548 | 29 | 185 | 1.6 | 3.2 | 0.00 | 0.00 | 0.00 | 37 | 1009.8 |
| 20260509204044 | 29 | 137 | 1.6 | 4.8 | 0.00 | 0.00 | 0.00 | 33 | 1009.8 |
| 20260509203540 | 28 | 57 | 0.0 | 6.4 | 0.00 | 0.00 | 0.00 | 33 | 1009.7 |
| 20260509203039 | 29 | 45 | 3.2 | 4.8 | 0.00 | 0.00 | 0.00 | 33 | 1009.7 |
| 20260509202539 | 28 | 185 | 3.2 | 6.4 | 0.00 | 0.00 | 0.00 | 35 | 1009.9 |
| 20260509202034 | 28 | 32 | 4.8 | 6.4 | 0.00 | 0.00 | 0.00 | 35 | 1010.0 |
| 20260509201530 | 29 | 184 | 4.8 | 6.4 | 0.00 | 0.00 | 0.00 | 34 | 1010.0 |
| 20260509201028 | 28 | 65 | 0.0 | 6.4 | 0.00 | 0.00 | 0.00 | 38 | 1010.0 |
| 20260509200527 | 29 | 160 | 4.8 | 9.7 | 0.00 | 0.00 | 0.00 | 37 | 1009.9 |
| 20260509200024 | 29 | 160 | 1.6 | 3.2 | 0.00 | 0.00 | 0.00 | 35 | 1009.9 |
| 20260509195519 | 28 | 46 | 1.6 | 6.4 | 0.00 | 0.00 | 0.00 | 36 | 1010.2 |
| 20260509195019 | 28 | 165 | 0.0 | 4.8 | 0.00 | 0.00 | 0.00 | 37 | 1010.2 |
| 20260509194515 | 29 | 131 | 0.0 | 1.6 | 0.00 | 0.00 | 0.00 | 35 | 1010.6 |
| 20260509194012 | 28 | 193 | 0.0 | 4.8 | 0.00 | 0.00 | 0.00 | 36 | 1010.4 |
| 20260509193512 | 28 | 178 | 1.6 | 4.8 | 0.00 | 0.00 | 0.00 | 36 | 1010.5 |
| 20260509193009 | 28 | 195 | 3.2 | 9.7 | 0.00 | 0.00 | 0.00 | 36 | 1010.6 |
| 20260509192506 | 27 | 169 | 0.0 | 1.6 | 0.00 | 0.00 | 0.00 | 37 | 1010.6 |
| 20260509192001 | 28 | 49 | 3.2 | 4.8 | 0.00 | 0.00 | 0.00 | 35 | 1010.6 |
| 20260509191456 | 28 | 178 | 4.8 | 6.4 | 0.00 | 0.00 | 0.00 | 39 | 1010.5 |
| 20260509190952 | 28 | 177 | 1.6 | 9.7 | 0.00 | 0.00 | 0.00 | 37 | 1010.7 |
| 20260509190449 | 28 | 158 | 4.8 | 11.3 | 0.00 | 0.00 | 0.00 | 38 | 1010.8 |
| 20260509185947 | 28 | 133 | 1.6 | 9.7 | 0.00 | 0.00 | 0.00 | 38 | 1010.6 |
| 20260509185444 | 28 | 151 | 1.6 | 9.7 | 0.00 | 0.00 | 0.00 | 38 | 1010.9 |
| 20260509184940 | 28 | 195 | 3.2 | 3.2 | 0.00 | 0.00 | 0.00 | 40 | 1011.0 |
| 20260509184439 | 28 | 158 | 1.6 | 6.4 | 0.00 | 0.00 | 0.00 | 39 | 1010.7 |
| 20260509183934 | 28 | 157 | 0.0 | 3.2 | 0.00 | 0.00 | 0.00 | 42 | 1011.2 |
| 20260509183429 | 28 | 163 | 1.6 | 4.8 | 0.00 | 0.00 | 0.00 | 40 | 1011.2 |
| 20260509182926 | 27 | 150 | 0.0 | 4.8 | 0.00 | 0.00 | 0.00 | 40 | 1011.3 |
| 20260509182422 | 27 | 123 | 0.0 | 6.4 | 0.00 | 0.00 | 0.00 | 43 | 1011.3 |
| 20260509181920 | 27 | 131 | 3.2 | 9.7 | 0.00 | 0.00 | 0.00 | 44 | 1011.2 |
| 20260509181417 | 27 | 187 | 0.0 | 3.2 | 0.00 | 0.00 | 0.00 | 42 | 1011.2 |
| 20260509180914 | 28 | 166 | 0.0 | 3.2 | 0.00 | 0.00 | 0.00 | 48 | 1011.3 |
| 20260509180409 | 27 | 202 | 1.6 | 6.4 | 0.00 | 0.00 | 0.00 | 37 | 1011.3 |
| 20260509175907 | 27 | 51 | 0.0 | 1.6 | 0.00 | 0.00 | 0.00 | 38 | 1011.6 |
| 20260509175403 | 27 | 167 | 3.2 | 4.8 | 0.00 | 0.00 | 0.00 | 39 | 1011.7 |
| 20260509174859 | 27 | 185 | 0.0 | 9.7 | 0.00 | 0.00 | 0.00 | 42 | 1011.8 |
| 20260509174355 | 27 | 174 | 0.0 | 6.4 | 0.00 | 0.00 | 0.00 | 37 | 1011.8 |
| 20260509173852 | 27 | 155 | 4.8 | 9.7 | 0.00 | 0.00 | 0.00 | 40 | 1011.9 |
| 20260509173352 | 27 | 151 | 3.2 | 4.8 | 0.00 | 0.00 | 0.00 | 40 | 1011.9 |
| 20260509172848 | 27 | 172 | 3.2 | 6.4 | 0.00 | 0.00 | 0.00 | 41 | 1012.0 |
| 20260509172345 | 26 | 98 | 3.2 | 6.4 | 0.00 | 0.00 | 0.00 | 45 | 1012.1 |
| 20260509171841 | 26 | 144 | 1.6 | 9.7 | 0.00 | 0.00 | 0.00 | 44 | 1011.9 |
| 20260509171337 | 26 | 164 | 3.2 | 14.5 | 0.00 | 0.00 | 0.00 | 43 | 1012.2 |
| 20260509170834 | 26 | 140 | 4.8 | 9.7 | 0.00 | 0.00 | 0.00 | 47 | 1012.0 |
| 20260509170329 | 26 | 150 | 0.0 | 9.7 | 0.00 | 0.00 | 0.00 | 49 | 1011.8 |
| 20260509165824 | 26 | 111 | 3.2 | 4.8 | 0.00 | 0.00 | 0.00 | 48 | 1011.9 |
| 20260509165319 | 26 | 114 | 0.0 | 6.4 | 0.00 | 0.00 | 0.00 | 52 | 1012.1 |
| 20260509164815 | 25 | 155 | 3.2 | 9.7 | 0.00 | 0.00 | 0.00 | 50 | 1012.1 |
| 20260509164311 | 25 | 54 | 1.6 | 6.4 | 0.00 | 0.00 | 0.00 | 48 | 1012.1 |
| 20260509163808 | 25 | 154 | 1.6 | 4.8 | 0.00 | 0.00 | 0.00 | 57 | 1012.1 |
| 20260509163304 | 25 | 111 | 0.0 | 3.2 | 0.00 | 0.00 | 0.00 | 53 | 1012.4 |
| 20260509162803 | 25 | 67 | 1.6 | 3.2 | 0.00 | 0.00 | 0.00 | 57 | 1012.4 |
| 20260509162257 | 24 | 173 | 3.2 | 3.2 | 0.00 | 0.00 | 0.00 | 54 | 1012.6 |
| 20260509161753 | 25 | 109 | 1.6 | 3.2 | 0.00 | 0.00 | 0.00 | 56 | 1012.5 |
| 20260509161249 | 25 | 74 | 1.6 | 3.2 | 0.00 | 0.00 | 0.00 | 53 | 1012.6 |
| 20260509160744 | 23 | 142 | 3.2 | 4.8 | 0.00 | 0.00 | 0.00 | 57 | 1012.6 |
| 20260509160241 | 23 | 157 | 1.6 | 3.2 | 0.00 | 0.00 | 0.00 | 58 | 1012.7 |
| 20260509155736 | 23 | 131 | 3.2 | 3.2 | 0.00 | 0.00 | 0.00 | 55 | 1012.3 |
| 20260509155233 | 23 | 161 | 3.2 | 4.8 | 0.00 | 0.00 | 0.00 | 55 | 1012.1 |
| 20260509154729 | 24 | 64 | 0.0 | 4.8 | 0.00 | 0.00 | 0.00 | 57 | 1012.3 |
| 20260509154226 | 23 | 60 | 0.0 | 0.0 | 0.00 | 0.00 | 0.00 | 58 | 1012.2 |
| 20260509153724 | 23 | 72 | 1.6 | 3.2 | 0.00 | 0.00 | 0.00 | 59 | 1012.1 |
| 20260509153219 | 23 | 93 | 0.0 | 4.8 | 0.00 | 0.00 | 0.00 | 57 | 1012.0 |
| 20260509152716 | 23 | 159 | 0.0 | 3.2 | 0.00 | 0.00 | 0.00 | 55 | 1012.1 |
| 20260509152213 | 23 | 165 | 0.0 | 3.2 | 0.00 | 0.00 | 0.00 | 56 | 1012.0 |
| 20260509151709 | 23 | 156 | 0.0 | 1.6 | 0.00 | 0.00 | 0.00 | 57 | 1012.2 |
| 20260509151207 | 23 | 173 | 1.6 | 1.6 | 0.00 | 0.00 | 0.00 | 59 | 1012.3 |
| 20260509150704 | 23 | 136 | 3.2 | 3.2 | 0.00 | 0.00 | 0.00 | 63 | 1012.1 |
| 20260509150203 | 23 | 184 | 0.0 | 3.2 | 0.00 | 0.00 | 0.00 | 70 | 1012.3 |
| 20260509145658 | 22 | 124 | 0.0 | 0.0 | 0.00 | 0.00 | 0.00 | 69 | 1012.1 |
| 20260509145154 | 22 | 100 | 0.0 | 0.0 | 0.00 | 0.00 | 0.00 | 71 | 1012.0 |
| 20260509144650 | 22 | 144 | 3.2 | 4.8 | 0.00 | 0.00 | 0.00 | 74 | 1012.0 |
| 20260509144148 | 21 | 175 | 0.0 | 0.0 | 0.00 | 0.00 | 0.00 | 79 | 1012.1 |
| 20260509143645 | 21 | 192 | 0.0 | 0.0 | 0.00 | 0.00 | 0.00 | 78 | 1012.2 |
| 20260509143142 | 21 | 141 | 0.0 | 0.0 | 0.00 | 0.00 | 0.00 | 79 | 1012.2 |
| 20260509142637 | 21 | 152 | 0.0 | 3.2 | 0.00 | 0.00 | 0.00 | 82 | 1012.1 |
| 20260509142135 | 21 | 184 | 3.2 | 3.2 | 0.00 | 0.00 | 0.00 | 83 | 1012.2 |
| 20260509141630 | 20 | 188 | 3.2 | 3.2 | 0.00 | 0.00 | 0.00 | 84 | 1012.3 |
| 20260509141127 | 20 | 184 | 0.0 | 3.2 | 0.00 | 0.00 | 0.00 | 84 | 1012.3 |
| 20260509140624 | 20 | 201 | 0.0 | 1.6 | 0.00 | 0.00 | 0.00 | 86 | 1011.9 |
| 20260509140122 | 19 | 222 | 0.0 | 1.6 | 0.00 | 0.00 | 0.00 | 87 | 1012.0 |
| 20260509135619 | 18 | 254 | 3.2 | 4.8 | 0.00 | 0.00 | 0.00 | 88 | 1012.1 |
| 20260509135117 | 19 | 244 | 3.2 | 3.2 | 0.00 | 0.00 | 0.00 | 86 | 1011.8 |
| 20260509134613 | 19 | 222 | 1.6 | 1.6 | 0.00 | 0.00 | 0.00 | 86 | 1012.0 |
| 20260509134111 | 18 | 242 | 0.0 | 0.0 | 0.00 | 0.00 | 0.00 | 89 | 1011.9 |
| 20260509133608 | 18 | 280 | 0.0 | 0.0 | 0.00 | 0.00 | 0.00 | 95 | 1011.8 |
| 20260509133105 | 17 | 254 | 0.0 | 1.6 | 0.00 | 0.00 | 0.00 | 97 | 1011.8 |
| 20260509132603 | 17 | 265 | 0.0 | 1.6 | 0.00 | 0.00 | 0.00 | 98 | 1011.9 |
| 20260509132101 | 17 | 270 | 1.6 | 3.2 | 0.00 | 0.00 | 0.00 | 99 | 1011.8 |
| 20260509131557 | 16 | 4 | 0.0 | 0.0 | 0.00 | 0.00 | 0.00 | 99 | 1011.6 |
| 20260509131054 | 16 | 8 | 1.6 | 3.2 | 0.00 | 0.00 | 0.00 | 99 | 1011.3 |
| 20260509130549 | 15 | 28 | 0.0 | 1.6 | 0.00 | 0.00 | 0.00 | 99 | 1011.2 |
| 20260509130047 | 15 | 26 | 0.0 | 1.6 | 0.00 | 0.00 | 0.00 | 99 | 1011.6 |
| 20260509125543 | 15 | 343 | 1.6 | 3.2 | 0.00 | 0.00 | 0.00 | 99 | 1011.3 |
| 20260509125039 | 15 | 7 | 1.6 | 3.2 | 0.00 | 0.00 | 0.00 | 99 | 1011.4 |
| 20260509124536 | 15 | 7 | 3.2 | 4.8 | 0.00 | 0.00 | 0.00 | 99 | 1011.4 |
| 20260509124033 | 15 | 275 | 1.6 | 3.2 | 0.00 | 0.00 | 0.00 | 99 | 1011.3 |
| 20260509123532 | 15 | 199 | 0.0 | 0.0 | 0.00 | 0.00 | 0.00 | 99 | 1011.3 |
| 20260509123027 | 15 | 199 | 0.0 | 0.0 | 0.00 | 0.00 | 0.00 | 99 | 1011.0 |
| 20260509122524 | 14 | 199 | 0.0 | 0.0 | 0.00 | 0.00 | 0.00 | 99 | 1011.1 |
| 20260509122021 | 13 | 199 | 0.0 | 0.0 | 0.00 | 0.00 | 0.00 | 99 | 1011.1 |
| 20260509121517 | 12 | 199 | 0.0 | 0.0 | 0.00 | 0.00 | 0.00 | 99 | 1011.0 |
| 20260509121015 | 13 | 199 | 0.0 | 0.0 | 0.00 | 0.00 | 0.00 | 99 | 1011.0 |
| 20260509120514 | 13 | 199 | 0.0 | 0.0 | 0.00 | 0.00 | 0.00 | 99 | 1010.9 |
| 20260509120011 | 13 | 199 | 0.0 | 0.0 | 0.00 | 0.00 | 0.00 | 99 | 1010.6 |
| 20260509115508 | 12 | 199 | 0.0 | 0.0 | 0.00 | 0.00 | 0.00 | 99 | 1010.7 |
| 20260509115006 | 12 | 199 | 0.0 | 0.0 | 0.00 | 0.00 | 0.00 | 99 | 1010.9 |
| 20260509114503 | 12 | 199 | 0.0 | 0.0 | 0.00 | 0.00 | 0.00 | 98 | 1010.8 |
| 20260509114003 | 12 | 199 | 0.0 | 0.0 | 0.00 | 0.00 | 0.00 | 98 | 1010.7 |
| 20260509113500 | 12 | 199 | 0.0 | 0.0 | 0.00 | 0.00 | 0.00 | 98 | 1010.7 |
| 20260509112956 | 11 | 199 | 0.0 | 0.0 | 0.00 | 0.00 | 0.00 | 98 | 1010.6 |
| 20260509112454 | 11 | 199 | 0.0 | 0.0 | 0.00 | 0.00 | 0.00 | 98 | 1010.6 |
| 20260509111950 | 11 | 199 | 0.0 | 0.0 | 0.00 | 0.00 | 0.00 | 98 | 1010.5 |
| 20260509111448 | 12 | 199 | 0.0 | 0.0 | 0.00 | 0.00 | 0.00 | 98 | 1010.6 |
| 20260509110945 | 12 | 199 | 0.0 | 0.0 | 0.00 | 0.00 | 0.00 | 98 | 1010.6 |
| 20260509110441 | 12 | 199 | 0.0 | 0.0 | 0.00 | 0.00 | 0.00 | 98 | 1010.5 |
| 20260509105939 | 12 | 200 | 0.0 | 0.0 | 0.00 | 0.00 | 0.00 | 98 | 1010.6 |
| 20260509105438 | 12 | 199 | 0.0 | 0.0 | 0.00 | 0.00 | 0.00 | 98 | 1010.3 |
| 20260509104934 | 12 | 199 | 0.0 | 0.0 | 0.00 | 0.00 | 0.00 | 98 | 1010.7 |
| 20260509104431 | 12 | 199 | 0.0 | 0.0 | 0.00 | 0.00 | 0.00 | 98 | 1010.6 |
| 20260509103928 | 12 | 199 | 0.0 | 0.0 | 0.00 | 0.00 | 0.00 | 98 | 1010.6 |
| 20260509103425 | 11 | 199 | 0.0 | 0.0 | 0.00 | 0.00 | 0.00 | 98 | 1010.8 |
| 20260509102924 | 11 | 199 | 0.0 | 0.0 | 0.00 | 0.00 | 0.00 | 98 | 1010.5 |
| 20260509102421 | 11 | 199 | 0.0 | 0.0 | 0.00 | 0.00 | 0.00 | 98 | 1010.7 |
| 20260509101917 | 11 | 199 | 0.0 | 0.0 | 0.00 | 0.00 | 0.00 | 98 | 1010.8 |
| 20260509101413 | 12 | 199 | 0.0 | 0.0 | 0.00 | 0.00 | 0.00 | 98 | 1010.7 |
| 20260509100911 | 12 | 199 | 0.0 | 0.0 | 0.00 | 0.00 | 0.00 | 98 | 1010.9 |
| 20260509100408 | 12 | 199 | 0.0 | 0.0 | 0.00 | 0.00 | 0.00 | 98 | 1010.8 |
| 20260509095904 | 12 | 198 | 0.0 | 0.0 | 0.00 | 0.00 | 0.00 | 98 | 1010.8 |
| 20260509095402 | 12 | 198 | 0.0 | 0.0 | 0.00 | 0.00 | 0.00 | 98 | 1010.9 |
| 20260509094859 | 12 | 198 | 0.0 | 0.0 | 0.00 | 0.00 | 0.00 | 98 | 1011.0 |
| 20260509094355 | 12 | 198 | 0.0 | 0.0 | 0.00 | 0.00 | 0.00 | 98 | 1011.0 |
| 20260509093853 | 12 | 198 | 0.0 | 0.0 | 0.00 | 0.00 | 0.00 | 98 | 1011.0 |
| 20260509093350 | 12 | 198 | 0.0 | 0.0 | 0.00 | 0.00 | 0.00 | 98 | 1010.8 |
| 20260509092849 | 11 | 198 | 0.0 | 0.0 | 0.00 | 0.00 | 0.00 | 97 | 1011.0 |
| 20260509092346 | 12 | 198 | 0.0 | 0.0 | 0.00 | 0.00 | 0.00 | 97 | 1011.0 |
| 20260509091844 | 12 | 198 | 0.0 | 0.0 | 0.00 | 0.00 | 0.00 | 97 | 1011.0 |
| 20260509091340 | 12 | 199 | 0.0 | 0.0 | 0.00 | 0.00 | 0.00 | 97 | 1010.9 |
| 20260509090838 | 12 | 199 | 0.0 | 0.0 | 0.00 | 0.00 | 0.00 | 97 | 1011.2 |
| 20260509090335 | 12 | 199 | 0.0 | 0.0 | 0.00 | 0.00 | 0.00 | 97 | 1010.8 |
| 20260509085832 | 12 | 199 | 0.0 | 0.0 | 0.00 | 0.00 | 0.00 | 97 | 1010.8 |
| 20260509085329 | 12 | 199 | 0.0 | 0.0 | 0.00 | 0.00 | 0.00 | 97 | 1010.8 |
| 20260509084826 | 12 | 199 | 0.0 | 0.0 | 0.00 | 0.00 | 0.00 | 97 | 1011.0 |
| 20260509084323 | 12 | 199 | 0.0 | 0.0 | 0.00 | 0.00 | 0.00 | 97 | 1011.0 |
| 20260509083821 | 12 | 199 | 0.0 | 0.0 | 0.00 | 0.00 | 0.00 | 97 | 1011.0 |
| 20260509083317 | 12 | 199 | 0.0 | 0.0 | 0.00 | 0.00 | 0.00 | 97 | 1011.0 |
| 20260509082814 | 12 | 200 | 0.0 | 1.6 | 0.00 | 0.00 | 0.00 | 97 | 1011.0 |
| 20260509082310 | 12 | 199 | 0.0 | 0.0 | 0.00 | 0.00 | 0.00 | 96 | 1011.2 |
| 20260509081808 | 13 | 199 | 0.0 | 0.0 | 0.00 | 0.00 | 0.00 | 96 | 1010.8 |
| 20260509081305 | 12 | 199 | 0.0 | 0.0 | 0.00 | 0.00 | 0.00 | 96 | 1011.1 |
| 20260509080803 | 13 | 199 | 0.0 | 0.0 | 0.00 | 0.00 | 0.00 | 96 | 1011.1 |
| 20260509080300 | 13 | 199 | 0.0 | 0.0 | 0.00 | 0.00 | 0.00 | 96 | 1011.2 |
| 20260509075759 | 13 | 199 | 0.0 | 0.0 | 0.00 | 0.00 | 0.00 | 96 | 1011.6 |
| 20260509075255 | 13 | 200 | 0.0 | 0.0 | 0.00 | 0.00 | 0.00 | 96 | 1011.6 |
| 20260509074752 | 13 | 200 | 0.0 | 0.0 | 0.00 | 0.00 | 0.00 | 96 | 1011.6 |
| 20260509074250 | 14 | 197 | 0.0 | 0.0 | 0.00 | 0.00 | 0.00 | 96 | 1011.4 |
| 20260509073746 | 14 | 197 | 0.0 | 1.6 | 0.00 | 0.00 | 0.00 | 95 | 1011.6 |
| 20260509073243 | 13 | 180 | 0.0 | 0.0 | 0.00 | 0.00 | 0.00 | 95 | 1011.6 |
| 20260509072739 | 14 | 179 | 0.0 | 0.0 | 0.00 | 0.00 | 0.00 | 95 | 1011.3 |
| 20260509072235 | 14 | 176 | 0.0 | 1.6 | 0.00 | 0.00 | 0.00 | 95 | 1011.4 |
| 20260509071732 | 15 | 178 | 0.0 | 1.6 | 0.00 | 0.00 | 0.00 | 95 | 1011.6 |
| 20260509071230 | 15 | 181 | 1.6 | 3.2 | 0.00 | 0.00 | 0.00 | 95 | 1011.4 |
| 20260509070727 | 15 | 185 | 0.0 | 0.0 | 0.00 | 0.00 | 0.00 | 94 | 1011.4 |
| 20260509070223 | 15 | 186 | 0.0 | 0.0 | 0.00 | 0.00 | 0.00 | 93 | 1011.6 |
| 20260509065719 | 15 | 186 | 0.0 | 0.0 | 0.00 | 0.00 | 0.00 | 93 | 1011.3 |
| 20260509065216 | 15 | 181 | 0.0 | 1.6 | 0.00 | 0.00 | 0.00 | 93 | 1011.2 |
| 20260509064712 | 15 | 170 | 0.0 | 1.6 | 0.00 | 0.00 | 0.00 | 92 | 1011.2 |
| 20260509064210 | 15 | 155 | 1.6 | 3.2 | 0.00 | 0.00 | 0.00 | 92 | 1011.2 |
| 20260509063707 | 16 | 163 | 3.2 | 4.8 | 0.00 | 0.00 | 0.00 | 91 | 1011.2 |
| 20260509063203 | 16 | 137 | 4.8 | 4.8 | 0.00 | 0.00 | 0.00 | 91 | 1011.4 |
| 20260509062701 | 16 | 154 | 3.2 | 4.8 | 0.00 | 0.00 | 0.00 | 91 | 1011.9 |
| 20260509062158 | 16 | 140 | 4.8 | 4.8 | 0.00 | 0.00 | 0.00 | 92 | 1011.7 |
| 20260509061655 | 16 | 148 | 1.6 | 4.8 | 0.00 | 0.00 | 0.00 | 92 | 1011.8 |
| 20260509061152 | 16 | 147 | 3.2 | 4.8 | 0.00 | 0.00 | 0.00 | 92 | 1011.6 |
| 20260509060650 | 16 | 151 | 3.2 | 6.4 | 0.00 | 0.00 | 0.00 | 91 | 1011.7 |
| 20260509060146 | 16 | 163 | 3.2 | 4.8 | 0.00 | 0.00 | 0.00 | 91 | 1011.6 |
| 20260509055641 | 16 | 146 | 3.2 | 6.4 | 0.00 | 0.00 | 0.00 | 91 | 1011.6 |
| 20260509055137 | 16 | 158 | 3.2 | 6.4 | 0.00 | 0.00 | 0.00 | 91 | 1011.7 |
| 20260509054634 | 16 | 125 | 4.8 | 9.7 | 0.00 | 0.00 | 0.00 | 92 | 1011.4 |
| 20260509054132 | 16 | 110 | 4.8 | 4.8 | 0.00 | 0.00 | 0.00 | 93 | 1011.4 |
| 20260509053630 | 16 | 152 | 1.6 | 3.2 | 0.00 | 0.00 | 0.00 | 93 | 1011.4 |
| 20260509053127 | 16 | 147 | 0.0 | 1.6 | 0.00 | 0.00 | 0.00 | 93 | 1011.3 |
| 20260509052625 | 16 | 147 | 0.0 | 4.8 | 0.00 | 0.00 | 0.00 | 93 | 1011.4 |
| 20260509052122 | 16 | 138 | 1.6 | 1.6 | 0.00 | 0.00 | 0.00 | 93 | 1011.4 |
| 20260509051620 | 16 | 135 | 0.0 | 0.0 | 0.00 | 0.00 | 0.00 | 93 | 1011.6 |
| 20260509051117 | 16 | 129 | 0.0 | 0.0 | 0.00 | 0.00 | 0.00 | 92 | 1011.3 |
| 20260509050614 | 16 | 118 | 0.0 | 3.2 | 0.00 | 0.00 | 0.00 | 92 | 1011.7 |
| 20260509050109 | 16 | 98 | 1.6 | 1.6 | 0.00 | 0.00 | 0.00 | 92 | 1011.8 |
| 20260509045608 | 16 | 76 | 0.0 | 1.6 | 0.00 | 0.08 | 0.08 | 92 | 1011.7 |
| 20260509045104 | 16 | 108 | 0.0 | 1.6 | 0.00 | 0.08 | 0.08 | 92 | 1011.7 |
| 20260509044601 | 16 | 108 | 0.0 | 3.2 | 0.00 | 0.08 | 0.08 | 92 | 1011.6 |
| 20260509044059 | 16 | 121 | 0.0 | 3.2 | 0.00 | 0.08 | 0.08 | 92 | 1011.7 |
| 20260509043555 | 16 | 118 | 0.0 | 3.2 | 0.00 | 0.08 | 0.08 | 92 | 1011.6 |
| 20260509043051 | 16 | 138 | 1.6 | 3.2 | 0.00 | 0.08 | 0.08 | 92 | 1011.8 |
| 20260509042547 | 16 | 90 | 1.6 | 4.8 | 0.00 | 0.08 | 0.08 | 92 | 1011.7 |
| 20260509042044 | 16 | 116 | 1.6 | 3.2 | 0.00 | 0.08 | 0.08 | 92 | 1011.8 |
| 20260509041540 | 16 | 81 | 0.0 | 1.6 | 0.00 | 0.08 | 0.08 | 91 | 1011.7 |
| 20260509041038 | 16 | 76 | 0.0 | 1.6 | 0.00 | 0.08 | 0.08 | 91 | 1011.7 |
| 20260509040536 | 16 | 56 | 1.6 | 3.2 | 0.00 | 0.08 | 0.08 | 90 | 1011.7 |
| 20260509040033 | 17 | 50 | 1.6 | 6.4 | 0.00 | 0.08 | 0.08 | 90 | 1011.6 |
| 20260509035530 | 17 | 93 | 0.0 | 6.4 | 0.00 | 0.08 | 0.08 | 90 | 1011.6 |
| 20260509035026 | 16 | 59 | 3.2 | 4.8 | 0.00 | 0.08 | 0.08 | 90 | 1011.7 |
| 20260509034525 | 16 | 40 | 3.2 | 6.4 | 0.00 | 0.08 | 0.08 | 90 | 1011.4 |
| 20260509034021 | 16 | 44 | 1.6 | 3.2 | 0.00 | 0.08 | 0.08 | 91 | 1011.2 |
| 20260509033518 | 16 | 42 | 0.0 | 3.2 | 0.00 | 0.08 | 0.08 | 91 | 1011.1 |
| 20260509033015 | 16 | 54 | 3.2 | 4.8 | 0.00 | 0.08 | 0.08 | 92 | 1011.2 |
| 20260509032512 | 16 | 45 | 0.0 | 0.0 | 0.00 | 0.08 | 0.08 | 92 | 1010.8 |
| 20260509032009 | 16 | 55 | 0.0 | 0.0 | 0.00 | 0.08 | 0.08 | 91 | 1010.9 |
| 20260509031507 | 16 | 118 | 0.0 | 0.0 | 0.00 | 0.08 | 0.08 | 91 | 1010.6 |
| 20260509031004 | 16 | 205 | 0.0 | 0.0 | 0.00 | 0.08 | 0.08 | 91 | 1010.4 |
| 20260509030502 | 16 | 170 | 0.0 | 0.0 | 0.00 | 0.08 | 0.08 | 90 | 1010.2 |
| 20260509025959 | 17 | 169 | 0.0 | 0.0 | 0.00 | 0.08 | 0.08 | 89 | 1010.2 |
| 20260509025455 | 17 | 170 | 0.0 | 0.0 | 0.00 | 0.08 | 0.08 | 89 | 1010.0 |
| 20260509024950 | 17 | 167 | 0.0 | 1.6 | 0.00 | 0.08 | 0.08 | 88 | 1009.9 |
| 20260509024447 | 17 | 180 | 1.6 | 3.2 | 0.00 | 0.08 | 0.08 | 88 | 1009.7 |
| 20260509023943 | 17 | 179 | 1.6 | 3.2 | 0.00 | 0.08 | 0.08 | 87 | 1009.7 |
| 20260509023441 | 17 | 185 | 3.2 | 4.8 | 0.00 | 0.08 | 0.08 | 87 | 1009.7 |
| 20260509022937 | 17 | 178 | 0.0 | 0.0 | 0.00 | 0.08 | 0.08 | 88 | 1009.6 |
| 20260509022434 | 17 | 130 | 1.6 | 3.2 | 0.00 | 0.08 | 0.08 | 89 | 1009.6 |